Date String (YYYY-MM-DD hh:mm:ss) UTC,Instrument flags,Ambient pressure (hPa),Sample flow (lpm),Bypass flow (lpm),Sample temperature (°C),Ambient temperature (°C),ASC tube jacket temperature (°C),LED temperature (°C),Box temperature (°C),Sample RH (%),Span deviation,Mass concentration (μg/m³),Mass concentration (μg/m³),Mass concentration (μg/m³)
DateTimeUTC,F1_M11,P_M11,Q1_M11,Q2_M11,T1_M11,T2_M11,T3_M11,T4_M11,T5_M11,U1_M11,ZSPAN_M11,X0_M11,X2_M11,X1_M11
2022-09-30 14:00:00,,0826.2,5.01,0.00,30.9,29.6,00.0,39.6,32.7,17.3,0000.0,0008.34,0003.46,0003.16
2022-09-30 14:01:00,,0826.2,4.99,0.00,30.9,29.6,00.0,39.6,32.7,17.6,0000.0,0008.18,0003.48,0003.15
2022-09-30 14:02:00,,0826.3,4.99,0.00,30.9,29.6,00.0,39.6,32.7,17.6,0000.0,0008.08,0003.47,0003.13
2022-09-30 14:03:00,,0826.2,5.01,0.00,30.9,29.7,00.0,39.7,32.7,17.5,0000.0,0008.12,0003.46,0003.11
2022-09-30 14:04:00,,0826.2,4.98,0.00,31.0,29.7,00.0,39.7,32.8,17.2,0000.0,0006.59,0003.45,0003.10
2022-09-30 14:05:00,,0826.2,5.01,0.00,31.0,29.6,00.0,39.7,32.8,16.7,0000.0,0006.27,0003.44,0003.11
2022-09-30 14:06:00,,0826.2,5.00,0.00,31.0,29.6,00.0,39.7,32.8,17.1,0000.0,0005.92,0003.43,0003.12
2022-09-30 14:07:00,,0826.2,4.99,0.00,31.0,29.7,00.0,39.7,32.8,17.5,0000.0,0006.24,0003.40,0003.10
2022-09-30 14:08:00,,0826.2,5.00,0.00,31.0,29.7,00.0,39.7,32.8,17.0,0000.0,0006.21,0003.39,0003.10
2022-09-30 14:09:00,,0826.2,5.01,0.00,31.0,29.7,00.0,39.7,32.8,16.4,0000.0,0006.34,0003.41,0003.11
2022-09-30 14:10:00,,0826.2,4.99,0.00,31.0,29.7,00.0,39.7,32.8,16.5,0000.0,0006.84,0003.46,0003.14
2022-09-30 14:11:00,,0826.2,5.01,0.00,31.0,29.7,00.0,39.7,32.9,16.6,0000.0,0007.68,0003.50,0003.17
2022-09-30 14:12:00,,0826.2,4.99,0.00,31.0,29.7,00.0,39.8,32.9,16.3,0000.0,0007.92,0003.50,0003.19
2022-09-30 14:13:00,,0826.2,5.00,0.00,31.1,29.8,00.0,39.8,32.9,16.2,0000.0,0007.90,0003.51,0003.21
2022-09-30 14:14:00,,0826.2,5.00,0.00,31.1,29.8,00.0,39.8,32.9,16.0,0000.0,0007.81,0003.51,0003.24
2022-09-30 14:15:00,,0826.2,5.00,0.00,31.1,29.8,00.0,39.8,32.9,15.9,0000.0,0007.75,0003.53,0003.26
2022-09-30 14:16:00,,0826.2,5.01,0.00,31.1,29.8,00.0,39.8,32.9,16.1,0000.0,0007.71,0003.54,0003.28
2022-09-30 14:17:00,,0826.2,4.98,0.00,31.1,29.8,00.0,39.8,32.9,17.1,0000.0,0007.95,0003.61,0003.29
2022-09-30 14:18:00,,0826.2,5.01,0.00,31.1,29.8,00.0,39.8,32.9,17.0,0000.0,0007.88,0003.68,0003.30
2022-09-30 14:19:00,,0826.3,4.99,0.00,31.1,29.8,00.0,39.8,32.9,17.1,0000.0,0007.90,0003.70,0003.31
2022-09-30 14:20:00,,0826.2,4.99,0.00,31.1,28.9,00.0,39.8,32.9,17.3,0000.0,0009.05,0003.72,0003.31
2022-09-30 14:21:00,,0826.2,5.00,0.00,31.1,27.6,00.0,39.8,32.8,17.6,0000.0,0009.49,0003.72,0003.31
2022-09-30 14:22:00,,0826.3,5.00,0.00,31.0,27.5,00.0,39.7,32.7,17.3,0000.0,0009.08,0003.73,0003.30
2022-09-30 14:23:00,,0826.2,5.00,0.00,30.9,27.7,00.0,39.7,32.5,17.2,0000.0,0009.26,0003.76,0003.29
2022-09-30 14:24:00,,0826.2,5.01,0.00,30.9,28.0,00.0,39.6,32.5,17.1,0000.0,0009.82,0003.79,0003.28
2022-09-30 14:25:00,,0826.2,4.98,0.00,30.8,28.3,00.0,39.6,32.4,17.1,0000.0,0009.99,0003.81,0003.27
2022-09-30 14:26:00,,0826.2,4.99,0.00,30.8,28.6,00.0,39.6,32.5,17.2,0000.0,0010.14,0003.83,0003.26
2022-09-30 14:27:00,,0826.2,5.00,0.00,30.8,28.8,00.0,39.6,32.5,17.0,0000.0,0010.51,0003.83,0003.24
2022-09-30 14:28:00,,0826.2,5.00,0.00,30.8,28.9,00.0,39.6,32.5,16.9,0000.0,0009.99,0003.77,0003.23
2022-09-30 14:29:00,,0826.2,4.99,0.00,30.8,29.1,00.0,39.5,32.5,17.0,0000.0,0009.79,0003.71,0003.22
2022-09-30 14:30:00,,0826.2,5.00,0.00,30.8,29.2,00.0,39.5,32.5,17.0,0000.0,0009.80,0003.71,0003.22
2022-09-30 14:31:00,,0826.2,5.01,0.00,30.8,29.2,00.0,39.5,32.5,17.0,0000.0,0008.65,0003.72,0003.21
2022-09-30 14:32:00,,0826.2,4.99,0.00,30.8,29.3,00.0,39.5,32.5,17.0,0000.0,0008.17,0003.72,0003.21
2022-09-30 14:33:00,,0826.2,5.00,0.00,30.8,29.4,00.0,39.5,32.5,17.0,0000.0,0008.89,0003.68,0003.20
2022-09-30 14:34:00,,0826.2,5.01,0.00,30.8,29.5,00.0,39.5,32.6,17.0,0000.0,0008.55,0003.64,0003.19
2022-09-30 14:35:00,,0826.4,4.98,0.00,30.8,29.5,00.0,39.5,32.6,17.1,0000.0,0008.13,0003.62,0003.19
2022-09-30 14:36:00,,0826.3,5.01,0.00,30.8,29.6,00.0,39.5,32.6,17.6,0000.0,0008.03,0003.62,0003.19
2022-09-30 14:37:00,,0826.2,5.00,0.00,30.8,29.6,00.0,39.6,32.6,18.1,0000.0,0007.94,0003.61,0003.20
2022-09-30 14:38:00,,0826.3,5.00,0.00,30.8,29.6,00.0,39.6,32.6,17.7,0000.0,0007.56,0003.61,0003.22
2022-09-30 14:39:00,,0826.4,5.01,0.00,30.9,29.7,00.0,39.6,32.7,18.1,0000.0,0007.66,0003.63,0003.22
2022-09-30 14:40:00,,0826.3,4.99,0.00,30.9,29.7,00.0,39.6,32.7,17.9,0000.0,0008.02,0003.68,0003.24
2022-09-30 14:41:00,,0826.4,5.00,0.00,30.9,29.7,00.0,39.6,32.7,18.0,0000.0,0008.54,0003.71,0003.25
2022-09-30 14:42:00,,0826.4,4.99,0.00,30.9,29.7,00.0,39.6,32.8,18.5,0000.0,0008.68,0003.74,0003.26
2022-09-30 14:43:00,,0826.4,5.00,0.00,31.0,29.2,00.0,39.6,32.8,18.2,0000.0,0008.65,0003.76,0003.25
2022-09-30 14:44:00,,0826.3,5.00,0.00,30.9,27.8,00.0,39.6,32.6,18.1,0000.0,0008.35,0003.78,0003.26
2022-09-30 14:45:00,,0826.3,5.01,0.00,30.9,27.3,00.0,39.5,32.6,18.5,0000.0,0008.53,0003.81,0003.26
2022-09-30 14:46:00,,0826.3,5.01,0.00,30.8,27.5,00.0,39.5,32.4,18.4,0000.0,0009.12,0003.88,0003.26
2022-09-30 14:47:00,,0826.3,5.00,0.00,30.7,27.8,00.0,39.5,32.3,18.2,0000.0,0010.28,0003.92,0003.26
2022-09-30 14:48:00,,0826.2,5.00,0.00,30.7,28.1,00.0,39.4,32.3,18.1,0000.0,0010.65,0003.96,0003.25
2022-09-30 14:49:00,,0826.3,4.99,0.00,30.6,28.4,00.0,39.4,32.3,18.0,0000.0,0010.95,0004.01,0003.26
2022-09-30 14:50:00,,0826.3,5.01,0.00,30.6,28.6,00.0,39.4,32.3,18.9,0000.0,0011.45,0004.06,0003.27
2022-09-30 14:51:00,,0826.4,5.00,0.00,30.6,28.8,00.0,39.4,32.3,19.0,0000.0,0011.23,0004.06,0003.29
2022-09-30 14:52:00,,0826.4,5.01,0.00,30.6,29.0,00.0,39.4,32.4,19.3,0000.0,0011.55,0004.11,0003.30
2022-09-30 14:53:00,,0826.4,4.99,0.00,30.6,29.1,00.0,39.4,32.4,19.6,0000.0,0012.22,0004.16,0003.32
2022-09-30 14:54:00,,0826.4,5.01,0.00,30.6,29.2,00.0,39.4,32.4,19.9,0000.0,0012.74,0004.28,0003.34
2022-09-30 14:55:00,,0826.4,4.99,0.00,30.6,29.3,00.0,39.4,32.4,20.0,0000.0,0012.76,0004.42,0003.37
2022-09-30 14:56:00,,0826.4,4.99,0.00,30.7,29.3,00.0,39.4,32.5,20.3,0000.0,0012.68,0004.51,0003.41
2022-09-30 14:57:00,,0826.4,5.01,0.00,30.7,29.4,00.0,39.4,32.5,20.4,0000.0,0012.91,0004.58,0003.45
2022-09-30 14:58:00,,0826.4,4.99,0.00,30.7,29.4,00.0,39.4,32.5,20.0,0000.0,0012.80,0004.65,0003.48
2022-09-30 14:59:00,,0826.4,5.01,0.00,30.7,29.5,00.0,39.4,32.5,19.8,0000.0,0014.37,0004.72,0003.52
